Home > Weather > Hefei > Past weeks

Flag for China Past Weather in Hefei, Anhui, China — Yesterday and Last 2 Weeks

Now
79 °F

Clear.


Feels Like: 82 °F
Forecast: 78 / 94 °F
Wind: 6 mph from East

Location: Hefei Airport

Current Time: Aug 24, 2016 at 5:05:07 AM

Latest Report: Aug 24, 2016 at 4:00 AM


Visibility: 10 mi

Pressure: 29.68 "Hg

Humidity: 89%

Dew Point: 75 °F

Location of HefeiLocation

Past Weather in Hefei — Graph

°F

Hefei Temperature Yesterday

Maximum temperature yesterday: 93 °F (at 3:00 PM)
Minimum temperature yesterday: 79 °F (at 1:00 AM)
Average temperature yesterday: 84 °F

High & Low Weather Summary for the Past Weeks

 TemperatureHumidityPressure
High99 °F (Aug 13, 3:00 PM)100% (Aug 9, 4:00 AM)29.77 "Hg (Aug 9, 4:00 AM)
Low79 °F (Aug 9, 4:00 AM)50% (Aug 14, 2:00 PM)29.50 "Hg (Aug 18, 5:00 PM)
Average86 °F81%29.65 "Hg
* Reported Aug 9 3:00 AM — Aug 24 3:00 AM, Hefei, Weather by CustomWeather, © 2016

Note: Actual official high and low records may vary slightly from our data, if they occured in-between our weather recording intervals... More about our weather records

Advertising

Hefei Weather History for the Previous 24 Hours

Scroll right to see more
 ConditionsComfort  
Time TempWeatherWind HumidityBarometerVisibility
3:00 AM
Wed, Aug 24
79 °FClear.6 mph89%29.65 "Hg10 mi
2:00 AM81 °FClear.6 mph84%29.65 "Hg5 mi
1:00 AM81 °FClear.6 mph89%29.68 "Hg4 mi
12:00 AM81 °FFog.3 mph94%29.68 "Hg3 mi
11:00 PM
Tue, Aug 23
82 °FFog.6 mph89%29.68 "Hg3 mi
10:00 PM82 °FFog.6 mph94%29.71 "Hg2 mi
9:00 PM82 °FFog.3 mph94%29.71 "Hg3 mi
8:00 PM84 °FClear.6 mph89%29.68 "Hg4 mi
7:00 PM86 °FPassing clouds.3 mph84%29.68 "HgN/A
6:00 PM90 °FScattered clouds.3 mph75%29.65 "HgN/A
5:00 PM90 °FScattered clouds.6 mph75%29.65 "HgN/A
4:00 PM93 °FScattered clouds.3 mph63%29.65 "HgN/A
3:00 PM93 °FScattered clouds.3 mph59%29.68 "HgN/A
2:00 PM91 °FScattered clouds.6 mph67%29.71 "Hg6 mi
1:00 PM91 °FPassing clouds.3 mph71%29.71 "Hg5 mi
12:00 PM90 °FClear.6 mph75%29.74 "Hg4 mi
11:00 AM88 °FClear.6 mph75%29.77 "Hg4 mi
10:00 AM84 °FFog.6 mph89%29.77 "Hg3 mi
9:00 AM82 °FFog.6 mph89%29.77 "Hg2 mi
8:00 AM82 °FFog.6 mph89%29.77 "Hg2 mi
7:00 AM81 °FFog.No wind94%29.77 "Hg1 mi
6:00 AM79 °FFog.No wind100%29.77 "Hg2 mi
5:00 AM79 °FFog.3 mph100%29.74 "Hg2 mi
Weather by CustomWeather, © 2016

See weather overviewHow to use our weather pages